Regional Weather Roundup
Issued by NWS Upton, NY

Current Version | Previous Version | Text Only | Print | Product List | Glossary On
Versions: 1 2 3 4 5 6 7 8 9 10 11 12 13 14 15 16 17 18 19 20 21 22 23 24 25 26 27
000
ASUS41 KOKX 161208
RWROKX

REGIONAL WEATHER ROUNDUP
NATIONAL WEATHER SERVICE NEW YORK NY
800 AM EDT WED AUG 16 2017

NOTE: "FAIR" INDICATES FEW OR NO CLOUDS BELOW 12,000 FEET WITH NO
SIGNIFICANT WEATHER AND/OR OBSTRUCTIONS TO VISIBILITY.

NYZ071-072-176-178-NJZ106-104-161300-
NEW YORK CITY METRO AREA

CITY           SKY/WX    TMP DP  RH WIND       PRES   REMARKS
Central Park   SUNNY     71  68  90 VRB3      29.99R FOG
Bronx Bot Gard   N/A     73  64  73 NW7       29.98R
LaGuardia APRT MOSUNNY   73  68  84 NW8       29.95R
Kennedy INTL   MOSUNNY   74  71  91 NW8       29.96S
Breezy Point     N/A     72 N/A N/A NW5         N/A
Newark/Liberty MOSUNNY   73  68  84 NW5       29.96R
Teterboro      SUNNY     73  67  81 NW9       29.95R
$$

NYZ177-179-078>081-161300-
LONG ISLAND NEW YORK

CITY           SKY/WX    TMP DP  RH WIND       PRES   REMARKS
Jones Beach      N/A     72 N/A N/A NW8         N/A
Matinecock PT    N/A     73 N/A N/A NW2         N/A
Farmingdale    MOSUNNY   72  69  90 N6        29.95S FOG
MacArthur/ISP  MOSUNNY   72  71  97 NW8       29.94S FOG
Shirley        MOSUNNY   73  71  93 N6        29.94F FOG
Mt Sinai Harb    N/A    N/A N/A N/A NW3         N/A
Westhampton    MOSUNNY   73  69  87 NW6       29.95S FOG
East Hampton   PTSUNNY   71  69  94 CALM      29.94R
Montauk          N/A     72  70  93 NW5       29.94S
$$

NYZ052-065-067-161300-
HUDSON VALLEY

CITY           SKY/WX    TMP DP  RH WIND       PRES   REMARKS
White Plains   MOSUNNY   72  65  78 NW10      29.96R
Larchmont Harb   N/A     70 N/A N/A NW1         N/A
Croton On Huds   N/A     73 N/A N/A NW1         N/A
Newburgh       SUNNY     68  68 100 CALM      30.00
Montgomery     MOSUNNY   66  65  96 CALM      29.99R
Poughkeepsie   FOG       65  64  97 CALM      29.97R VSB 3/4
Albany         MOSUNNY   68  63  84 N3        29.98R
$$

NJZ001-105-106-008-010-013-015-019>022-104-161300-
NEW JERSEY

CITY           SKY/WX    TMP DP  RH WIND       PRES   REMARKS
Newark/Liberty MOSUNNY   73  68  84 NW5       29.96R
Teterboro      SUNNY     73  67  81 NW9       29.95R
Caldwell       SUNNY     70  68  93 CALM      29.98R
Somerville     SUNNY     70  70 100 CALM      29.96R FOG
Linden         FAIR      71  69  94 CALM      29.97R FOG
Perth Amboy      N/A     70 N/A N/A W6          N/A
Sussex         MOSUNNY   66  66 100 CALM      30.00R
Andover          N/A     67  65  93 CALM      30.00R
Trenton        CLOUDY    69  69 100 N5        29.97S FOG
Millville      FOG       72  72 100 NW3       29.97S VSB 1/4
Atlantic City  CLOUDY    72  72 100 NW7       29.97R FOG
Wrightstown    CLOUDY    71  70  99 NW6       29.94R FOG
Toms River     NOT AVBL
Belmar         CLOUDY    69  69 100 NW8       29.98R FOG
$$

PAZ047>061-062-071-161300-
EASTERN PENNSYLVANIA

CITY           SKY/WX    TMP DP  RH WIND       PRES   REMARKS
Philadelphia   MOSUNNY   73  69  87 NW6       29.98R FOG
Allentown      FOG       69  67  93 SW5       29.99R VSB 1/4
Scranton       CLOUDY    64  64 100 CALM      30.04R FOG
$$

CTZ002-004>006-009-010-012-RIZ004-006-007-MAZ004-011-015-161300-
SOUTHERN NEW ENGLAND
 IN CT

CITY           SKY/WX    TMP DP  RH WIND       PRES   REMARKS
Bradley INTL   MOSUNNY   70  65  84 NE3       29.95R
Hartford       SUNNY     73  65  75 N8        29.94S
Danbury        SUNNY     71  65  81 CALM      29.98R
Wtrbury/Oxford SUNNY     69  65  86 NW6       29.97S
Norwalk Harbor   N/A     70 N/A N/A N6          N/A
Bridgeport     SUNNY     73  66  78 N6        29.94S
Meriden        SUNNY     72  66  81 N3        29.94F
New Haven      SUNNY     73  67  81 N6        29.94S
Chester        NOT AVBL
Groton         SUNNY     73  68  84 NW8       29.92S
Wilimantic     MOSUNNY   69  68  96 CALM      29.94S

 IN RI

CITY           SKY/WX    TMP DP  RH WIND       PRES   REMARKS
Providence     MOSUNNY   72  68  87 NW9       29.93R
Block Island   SUNNY     71  68  90 NW9       29.93R
Westerly       SUNNY     73  69  87 NW3       29.93R
 IN MA

CITY           SKY/WX    TMP DP  RH WIND       PRES   REMARKS
Boston         MOSUNNY   73  66  78 NW7       29.92R
Worcester      PTSUNNY   66  62  87 NW6       29.96S
Westfield      SUNNY     70  65  84 W5        29.94F
Provincetown   SUNNY     70  67  90 W12       29.90S
Nantucket      CLOUDY    70  69  97 NW5       29.90S
$$

ANZ330-335-338-340-345-350-353-355-161300-
COASTAL MARINE OBSERVATIONS


STATION/POSITION TIME  SKY/WX   TEMP    WIND        PRES    VSBY  WAVE
                                AIR SEA DIR/SP/G                  HT/PER
                 (UTC)          (F)     (DEG/KT/KT) (MB)    (MI)  (FT/S)
NY HARB ENTRANCE 1150            72 74  310/ 12/ 14 1013.6          6/11
GREAT SOUTH BAY  1130            71 76  330/  8/  8   N/A
23 SSW MONTAUK P 1150            71 71              1013.7          5/12
15 E BARNEGAT LI 1100               76                N/A           5/12
HUDSON CANYON    1050            73 73  330/ 14/ 17 1012.4          7/10
KINGS POINT      1136            72 73  350/  3/  4 1013.9
EXECUTION ROCKS  NOT AVBL
WESTERN LI SOUND NOT AVBL
CENTRAL LI SOUND NOT AVBL
EASTERN LI SOUND NOT AVBL
ROBBINS REEF     1142                   310/  7/ 11 1015.0
$$


>>>>>>>>>>>>>>>>>>>>>>>>>>>> KEY <<<<<<<<<<<<<<<<<<<<<<<<<<<
>                                                          <
>     SKY/WX - Sky Condition/Present Weather               <
>     TMP    - Temperature in Fahrenheit                   <
>     DP     - Dew Point in Fahrenheit                     <
>     RH     - Relative Humidity in Percent                <
>     WIND   - Direction (from) and Speed in MPH           <
>     PRES   - Mean Sea Level Pressure (inches of Hg)      <
>     WCI    - Wind Chill Index                            <
>     VSB    - VISIBILITY IN MILES                         <
>     HX     - HEAT INDEX                                  <
>     TC     - TEMPERATURE IN CELSIUS                      <
>     VRB    - VARIABLE WIND DIRECTION                     <
>                                                          <
>>>>>>>>>>>>>>>>>>>>>>>>>>>> KEY <<<<<<<<<<<<<<<<<<<<<<<<<<<




USA.gov is the U.S. government's official web portal to all federal, state and local government web resources and services.